GW3919 Weather Reports


time (UTC)temp
C
wind
direction
speed
KPH
gust
KPH
rain 1hr
cm
rain 24hr
cm
rain mn
cm
humidity
%
barometer
mb
20260506014136 23 136 3.2 4.8 0.00 0.48 0.48 89 1005.6
20260506013634 23 128 4.8 4.8 0.00 0.48 0.48 88 1005.7
20260506013131 23 154 1.6 3.2 0.00 0.48 0.48 89 1005.6
20260506012627 23 153 6.4 8.0 0.00 0.48 0.48 90 1006.0
20260506012123 23 140 6.4 9.7 0.00 0.48 0.48 95 1005.8
20260506011621 23 153 4.8 9.7 0.00 0.48 0.48 99 1005.7
20260506011118 23 132 4.8 6.4 0.00 0.48 0.48 99 1005.6
20260506010612 23 128 4.8 8.0 0.00 0.48 0.48 99 1005.2
20260506010108 23 269 0.0 1.6 0.00 0.48 0.48 99 1004.8
20260506005605 23 262 1.6 1.6 0.00 0.48 0.48 99 1005.0
20260506005101 23 331 1.6 1.6 0.00 0.48 0.48 99 1005.1
20260506004558 22 113 0.0 3.2 0.00 0.48 0.48 99 1005.1
20260506004054 22 160 3.2 4.8 0.00 0.48 0.48 99 1005.1
20260506003551 23 178 1.6 4.8 0.00 0.48 0.48 99 1004.9
20260506003042 22 275 0.0 1.6 0.00 0.48 0.48 98 1004.9
20260506002537 22 314 1.6 4.8 0.13 0.48 0.48 97 1005.0
20260506002033 22 15 0.0 3.2 0.89 0.48 0.48 94 1005.2
20260506001529 23 258 3.2 4.8 2.46 0.46 0.46 90 1005.3
20260506001022 26 170 0.0 3.2 1.85 0.30 0.30 91 1004.8
20260506000519 28 164 1.6 3.2 0.30 0.05 0.05 82 1005.1
20260506000017 28 81 1.6 9.7 0.00 0.00 0.00 76 1004.7
20260505235515 28 16 1.6 4.8 0.00 0.00 0.00 75 1004.3
20260505235011 28 344 3.2 9.7 0.00 0.00 0.00 75 1004.1
20260505234508 28 303 4.8 6.4 0.00 0.00 0.00 75 1004.0
20260505234005 28 319 3.2 6.4 0.00 0.00 0.00 75 1003.9
20260505233502 29 292 3.2 8.0 0.00 0.00 0.00 74 1004.3
20260505233000 29 242 3.2 12.9 0.00 0.00 0.00 74 1004.1
20260505232458 30 300 3.2 4.8 0.00 0.00 0.00 73 1004.0
20260505231954 30 276 4.8 8.0 0.00 0.00 0.00 72 1004.0
20260505231452 30 29 3.2 6.4 0.00 0.00 0.00 70 1004.2
20260505230950 31 348 3.2 4.8 0.00 0.00 0.00 70 1004.1
20260505230447 31 282 4.8 6.4 0.00 0.00 0.00 69 1003.9
20260505225943 31 40 1.6 4.8 0.00 0.00 0.00 66 1003.7
20260505225441 31 329 3.2 8.0 0.00 0.00 0.00 66 1003.8
20260505224936 32 334 8.0 11.3 0.00 0.00 0.00 65 1003.7
20260505224428 33 328 4.8 8.0 0.00 0.00 0.00 64 1003.7
20260505223925 33 53 1.6 6.4 0.00 0.00 0.00 63 1003.7
20260505223422 32 336 6.4 9.7 0.00 0.00 0.00 65 1003.5
20260505222918 32 304 4.8 6.4 0.00 0.00 0.00 65 1003.6
20260505222414 32 233 3.2 3.2 0.00 0.00 0.00 63 1003.8
20260505221910 31 292 6.4 8.0 0.00 0.00 0.00 66 1003.6
20260505221408 32 291 3.2 8.0 0.00 0.00 0.00 64 1003.6
20260505220904 33 318 3.2 9.7 0.00 0.00 0.00 60 1003.7
20260505220402 33 319 1.6 6.4 0.00 0.00 0.00 61 1003.7
20260505215859 32 265 3.2 9.7 0.00 0.00 0.00 64 1003.6
20260505215357 33 294 3.2 4.8 0.00 0.00 0.00 62 1003.7
20260505214855 32 313 3.2 6.4 0.00 0.00 0.00 63 1003.8
20260505214352 33 42 3.2 9.7 0.00 0.00 0.00 62 1003.8
20260505213849 32 291 1.6 4.8 0.00 0.00 0.00 63 1003.9
20260505213347 32 314 3.2 6.4 0.00 0.00 0.00 62 1003.9
20260505212842 33 116 3.2 6.4 0.00 0.00 0.00 61 1003.9
20260505212339 33 132 12.9 14.5 0.00 0.00 0.00 60 1004.0
20260505211835 33 170 1.6 8.0 0.00 0.00 0.00 61 1004.1
20260505211333 33 319 3.2 6.4 0.00 0.00 0.00 60 1004.0
20260505210830 33 322 8.0 8.0 0.00 0.00 0.00 60 1004.0
20260505210327 33 330 6.4 6.4 0.00 0.00 0.00 62 1004.0
20260505205824 33 255 3.2 6.4 0.00 0.00 0.00 60 1004.3
20260505205323 32 294 6.4 9.7 0.00 0.00 0.00 61 1004.4
20260505204819 32 165 3.2 6.4 0.00 0.00 0.00 61 1004.4
20260505204317 32 316 6.4 8.0 0.00 0.00 0.00 62 1004.4
20260505203814 32 316 3.2 6.4 0.00 0.00 0.00 62 1004.4
20260505203310 32 6 1.6 9.7 0.00 0.00 0.00 64 1004.5
20260505202807 32 178 3.2 9.7 0.00 0.00 0.00 62 1004.5
20260505202306 32 284 3.2 8.0 0.00 0.00 0.00 62 1004.6
20260505201759 32 245 0.0 8.0 0.00 0.00 0.00 64 1004.8
20260505201256 31 299 6.4 9.7 0.00 0.00 0.00 63 1004.6
20260505200754 32 339 6.4 8.0 0.00 0.00 0.00 64 1004.7
20260505200251 32 260 3.2 4.8 0.00 0.00 0.00 63 1004.6
20260505195746 32 276 3.2 6.4 0.00 0.00 0.00 63 1004.9
20260505195244 31 242 3.2 6.4 0.00 0.00 0.00 65 1004.6
20260505194736 31 311 3.2 4.8 0.00 0.00 0.00 65 1004.6
20260505194233 31 84 1.6 6.4 0.00 0.00 0.00 67 1004.9
20260505193728 31 325 3.2 11.3 0.00 0.00 0.00 67 1004.9
20260505193226 31 150 4.8 6.4 0.00 0.00 0.00 66 1004.8
20260505192725 31 235 3.2 9.7 0.00 0.00 0.00 67 1005.1
20260505192222 30 287 4.8 6.4 0.00 0.00 0.00 68 1004.9
20260505191720 30 343 3.2 6.4 0.00 0.00 0.00 69 1005.0
20260505191218 30 195 3.2 9.7 0.00 0.00 0.00 69 1004.8
20260505190714 30 312 6.4 6.4 0.00 0.00 0.00 69 1005.0
20260505190213 30 316 6.4 8.0 0.00 0.00 0.00 71 1005.0
20260505185710 30 92 1.6 9.7 0.00 0.00 0.00 71 1005.1
20260505185207 29 344 3.2 8.0 0.00 0.00 0.00 72 1005.2
20260505184703 29 130 4.8 9.7 0.00 0.00 0.00 71 1005.2
20260505184201 29 74 3.2 6.4 0.00 0.00 0.00 70 1005.4
20260505183657 28 330 3.2 9.7 0.00 0.00 0.00 72 1005.2
20260505183155 28 53 3.2 9.7 0.00 0.00 0.00 73 1005.3
20260505182650 28 292 3.2 11.3 0.00 0.00 0.00 73 1005.4
20260505182148 28 52 3.2 9.7 0.00 0.00 0.00 72 1005.3
20260505181644 28 242 3.2 6.4 0.00 0.00 0.00 72 1005.3
20260505181142 28 327 4.8 9.7 0.00 0.00 0.00 72 1005.3
20260505180638 28 124 3.2 9.7 0.00 0.00 0.00 72 1005.4
20260505180136 28 349 6.4 6.4 0.00 0.00 0.00 72 1005.3
20260505175631 28 332 3.2 6.4 0.00 0.00 0.00 73 1005.4
20260505175128 28 317 3.2 9.7 0.00 0.00 0.00 71 1005.3
20260505174625 28 339 4.8 6.4 0.00 0.00 0.00 72 1005.3
20260505174121 28 325 3.2 8.0 0.00 0.00 0.00 71 1005.5
20260505173617 29 308 6.4 8.0 0.00 0.00 0.00 70 1005.3
20260505173113 28 229 1.6 6.4 0.00 0.00 0.00 71 1005.2
20260505172611 28 249 3.2 16.1 0.00 0.00 0.00 72 1005.5
20260505172108 28 354 8.0 11.3 0.00 0.00 0.00 72 1005.3
20260505171603 28 319 3.2 6.4 0.00 0.00 0.00 72 1005.4
20260505171100 28 283 6.4 11.3 0.00 0.00 0.00 72 1005.4
20260505170557 28 266 6.4 9.7 0.00 0.00 0.00 72 1005.5
20260505170054 28 233 3.2 8.0 0.00 0.00 0.00 72 1005.3
20260505165549 28 99 3.2 11.3 0.00 0.00 0.00 73 1005.4
20260505165045 27 57 3.2 8.0 0.00 0.00 0.00 75 1005.5
20260505164541 26 298 1.6 9.7 0.00 0.00 0.00 76 1005.3
20260505164038 27 342 3.2 9.7 0.00 0.00 0.00 74 1005.6
20260505163537 27 123 4.8 9.7 0.00 0.00 0.00 74 1005.5
20260505163033 27 319 3.2 8.0 0.00 0.00 0.00 74 1005.1
20260505162526 27 321 6.4 14.5 0.00 0.00 0.00 73 1005.4
20260505162023 27 17 1.6 12.9 0.00 0.00 0.00 74 1005.0
20260505161520 27 44 4.8 6.4 0.00 0.00 0.00 74 1005.2
20260505161017 27 293 8.0 9.7 0.00 0.00 0.00 74 1005.4
20260505160515 27 342 4.8 9.7 0.00 0.00 0.00 76 1005.2
20260505152951 27 320 6.4 12.9 0.00 0.00 0.00 77 1005.3
20260505152449 26 283 4.8 6.4 0.00 0.00 0.00 78 1005.4
20260505151944 25 280 4.8 8.0 0.00 0.00 0.00 80 1005.2
20260505151439 25 92 6.4 11.3 0.00 0.00 0.00 81 1005.2
20260505150937 25 309 3.2 6.4 0.00 0.00 0.00 81 1005.4
20260505150428 25 91 4.8 8.0 0.00 0.00 0.00 83 1005.4
20260505140358 23 305 3.2 6.4 0.00 0.00 0.00 86 1005.3
20260505124812 22 4 3.2 4.8 0.00 0.00 0.00 90 1005.2
20260505124309 21 3 1.6 4.8 0.00 0.00 0.00 90 1005.2
20260505123804 21 332 0.0 4.8 0.00 0.00 0.00 90 1004.8
20260505123301 21 162 3.2 4.8 0.00 0.00 0.00 90 1004.8
20260505122757 21 293 1.6 6.4 0.00 0.00 0.00 90 1004.6
20260505122255 21 349 3.2 8.0 0.00 0.00 0.00 90 1004.6
20260505121751 21 342 4.8 8.0 0.00 0.00 0.00 90 1004.6
20260505121248 21 290 3.2 3.2 0.00 0.00 0.00 90 1004.7
20260505120744 21 356 3.2 6.4 0.00 0.00 0.00 90 1004.6
20260505120241 21 301 3.2 8.0 0.00 0.00 0.00 90 1004.6
20260505115739 21 359 1.6 4.8 0.00 0.00 0.00 91 1004.6
20260505115237 21 317 6.4 6.4 0.00 0.00 0.00 90 1004.5
20260505114734 21 330 3.2 4.8 0.00 0.00 0.00 90 1004.5
20260505114230 21 137 0.0 6.4 0.00 0.00 0.00 90 1004.5
20260505113727 21 91 4.8 6.4 0.00 0.00 0.00 90 1004.3
20260505113223 21 344 1.6 4.8 0.00 0.00 0.00 90 1004.4
20260505112720 21 310 3.2 8.0 0.00 0.00 0.00 90 1004.3
20260505112218 21 74 3.2 4.8 0.00 0.00 0.00 90 1004.5
20260505111717 21 271 1.6 8.0 0.00 0.00 0.00 90 1004.4
20260505111214 21 2 1.6 8.0 0.00 0.00 0.00 90 1004.3
20260505110709 21 356 3.2 4.8 0.00 0.00 0.00 90 1004.5
20260505110207 21 348 4.8 6.4 0.00 0.00 0.00 90 1004.4
20260505102143 21 12 3.2 6.4 0.00 0.00 0.00 89 1004.3
20260505101641 21 278 0.0 6.4 0.00 0.00 0.00 89 1004.3
20260505101137 21 36 6.4 9.7 0.00 0.00 0.00 89 1004.4
20260505100633 21 285 4.8 4.8 0.00 0.00 0.00 89 1004.7
20260505100131 21 298 3.2 6.4 0.00 0.00 0.00 89 1004.4
20260505095627 21 304 9.7 9.7 0.00 0.00 0.00 89 1004.4
20260505095124 21 307 3.2 9.7 0.00 0.00 0.00 89 1004.4
20260505094620 21 83 1.6 8.0 0.00 0.00 0.00 89 1004.6
20260505094116 21 6 1.6 4.8 0.00 0.00 0.00 89 1004.5
20260505093613 21 253 3.2 6.4 0.00 0.00 0.00 89 1004.7
20260505093110 21 287 4.8 6.4 0.00 0.00 0.00 89 1004.7
20260505092607 21 56 3.2 4.8 0.00 0.00 0.00 89 1004.8
20260505092106 21 281 4.8 6.4 0.00 0.00 0.00 89 1004.9
20260505091602 21 331 3.2 9.7 0.00 0.00 0.00 89 1004.7
20260505091101 21 296 4.8 8.0 0.00 0.00 0.00 89 1004.9
20260505090558 21 319 3.2 6.4 0.00 0.00 0.00 89 1004.9
20260505090056 21 328 6.4 6.4 0.00 0.00 0.00 89 1004.6
20260505085553 21 307 3.2 11.3 0.00 0.00 0.00 89 1004.9
20260505085051 21 312 4.8 6.4 0.00 0.00 0.00 89 1004.7
20260505084549 21 291 3.2 9.7 0.00 0.00 0.00 89 1004.7
20260505084047 21 329 3.2 9.7 0.00 0.00 0.00 89 1004.8
20260505083544 21 93 3.2 6.4 0.00 0.00 0.00 89 1004.8
20260505083040 21 344 6.4 8.0 0.00 0.00 0.00 89 1004.7
20260505082536 21 28 1.6 6.4 0.00 0.00 0.00 89 1004.9
20260505082033 21 281 4.8 8.0 0.00 0.00 0.00 89 1004.9
20260505081530 21 349 3.2 9.7 0.00 0.00 0.00 89 1005.1
20260505081027 21 112 1.6 6.4 0.00 0.00 0.00 89 1005.1
20260505080523 21 354 4.8 8.0 0.00 0.00 0.00 89 1005.1
20260505080020 21 321 3.2 6.4 0.00 0.00 0.00 89 1005.1
20260505075516 21 36 3.2 9.7 0.00 0.00 0.00 89 1005.0
20260505075013 21 315 6.4 6.4 0.00 0.00 0.00 89 1005.2
20260505074510 21 291 4.8 8.0 0.00 0.00 0.00 88 1005.3
20260505074007 21 266 4.8 4.8 0.00 0.00 0.00 88 1005.5
20260505073504 21 297 4.8 8.0 0.00 0.00 0.00 88 1005.6
20260505073003 21 351 3.2 8.0 0.00 0.00 0.00 88 1005.8
20260505072458 21 343 3.2 4.8 0.00 0.00 0.00 87 1005.6
20260505071954 21 327 4.8 8.0 0.00 0.00 0.00 87 1005.6
20260505071450 21 201 3.2 8.0 0.00 0.00 0.00 87 1005.7
20260505070948 22 292 4.8 6.4 0.00 0.00 0.00 86 1006.0
20260505070445 22 340 6.4 8.0 0.00 0.00 0.00 86 1005.8
20260505065940 22 7 3.2 6.4 0.00 0.00 0.00 86 1006.0
20260505065437 22 258 6.4 8.0 0.00 0.00 0.00 86 1005.9
20260505064934 22 352 3.2 8.0 0.00 0.00 0.00 85 1005.8
20260505064431 22 349 6.4 8.0 0.00 0.00 0.00 85 1006.1
20260505063929 22 342 4.8 9.7 0.00 0.00 0.00 85 1006.2
20260505063425 22 246 1.6 8.0 0.00 0.00 0.00 85 1006.1
20260505062922 22 247 3.2 6.4 0.00 0.00 0.00 84 1006.1
20260505062419 22 297 3.2 6.4 0.00 0.00 0.00 84 1006.1
20260505061916 22 353 1.6 6.4 0.00 0.00 0.00 84 1006.1
20260505061414 22 330 8.0 12.9 0.00 0.00 0.00 84 1006.3
20260505060911 22 346 0.0 4.8 0.00 0.00 0.00 83 1006.2
20260505060408 22 282 3.2 8.0 0.00 0.00 0.00 83 1006.2
20260505055904 22 258 3.2 6.4 0.00 0.00 0.00 83 1006.4
20260505055400 22 322 1.6 6.4 0.00 0.00 0.00 83 1006.2
20260505054857 22 284 4.8 4.8 0.00 0.00 0.00 83 1006.1
20260505054355 22 119 3.2 6.4 0.00 0.00 0.00 82 1006.2
20260505053853 22 112 6.4 17.7 0.00 0.00 0.00 82 1006.2
20260505053350 22 313 3.2 6.4 0.00 0.00 0.00 82 1006.2
20260505052846 22 349 3.2 6.4 0.00 0.00 0.00 82 1006.1
20260505052343 22 297 4.8 8.0 0.00 0.00 0.00 82 1006.4
20260505051840 22 182 3.2 6.4 0.00 0.00 0.00 81 1006.4
20260505051337 22 305 4.8 8.0 0.00 0.00 0.00 81 1006.5
20260505050836 22 313 3.2 8.0 0.00 0.00 0.00 81 1006.4
20260505050334 22 52 3.2 6.4 0.00 0.00 0.00 80 1006.4
20260505041301 22 326 3.2 3.2 0.00 0.00 0.00 79 1006.8
20260505040758 22 99 1.6 4.8 0.00 0.00 0.00 79 1006.7
20260505040256 22 340 3.2 4.8 0.00 0.00 0.00 78 1006.8
20260505035752 23 241 4.8 6.4 0.00 0.00 0.00 78 1006.7
20260505035248 22 340 3.2 4.8 0.00 0.00 0.00 78 1006.6
20260505034745 22 316 3.2 4.8 0.00 0.00 0.00 78 1006.7
20260505034242 23 324 3.2 8.0 0.00 0.00 0.00 78 1006.5
20260505033738 23 358 1.6 4.8 0.00 0.00 0.00 78 1006.5
20260505033236 23 258 3.2 4.8 0.00 0.00 0.00 77 1006.7
20260505032734 23 342 3.2 4.8 0.00 0.00 0.00 77 1006.7
20260505032230 23 212 4.8 4.8 0.00 0.00 0.00 77 1006.7
20260505031728 23 315 4.8 8.0 0.00 0.00 0.00 77 1006.7
20260505031224 23 347 3.2 4.8 0.00 0.00 0.00 77 1006.7
20260505030721 23 328 3.2 6.4 0.00 0.00 0.00 76 1006.8
20260505030217 23 339 4.8 4.8 0.00 0.00 0.00 76 1006.8
20260505025713 23 284 4.8 8.0 0.00 0.00 0.00 76 1006.8
20260505025211 23 313 4.8 6.4 0.00 0.00 0.00 75 1006.9
20260505024709 23 316 4.8 6.4 0.00 0.00 0.00 75 1006.8
20260505024206 23 319 3.2 8.0 0.00 0.00 0.00 75 1007.0
20260505023703 23 295 3.2 9.7 0.00 0.00 0.00 75 1006.8
20260505023200 23 320 3.2 6.4 0.00 0.00 0.00 75 1006.2
20260505022658 23 338 1.6 6.4 0.00 0.00 0.00 74 1006.3
20260505022154 23 299 3.2 6.4 0.00 0.00 0.00 74 1006.2
20260505021651 23 323 4.8 6.4 0.00 0.00 0.00 74 1006.5
20260505021148 23 1 3.2 4.8 0.00 0.00 0.00 74 1006.5
20260505020643 23 328 3.2 4.8 0.00 0.00 0.00 73 1006.3
20260505020139 23 293 3.2 6.4 0.00 0.00 0.00 73 1006.2
20260505015637 23 1 3.2 8.0 0.00 0.00 0.00 73 1006.5
20260505015133 24 214 1.6 4.8 0.00 0.00 0.00 73 1006.5
20260505014630 24 275 4.8 8.0 0.00 0.00 0.00 72 1006.5